Preview of NWS' New Version of Forecast
This preview is not operational and should not be used for support decisions.

Regional Weather Roundup (RWR)

Issued by National Weather Service (NWS)

                            
000
ASUS42 KFFC 200710
RWRGA 
WEATHER ROUNDUP FOR GEORGIA
NATIONAL WEATHER SERVICE PEACHTREE CITY GA
300 AM EDT MON MAY 20 2019

NOTE: "FAIR" INDICATES FEW OR NO CLOUDS BELOW 12,000 FEET WITH NO
SIGNIFICANT WEATHER AND/OR OBSTRUCTIONS TO VISIBILITY. 

* = USE WITH CAUTION. THE STATIONS MARKED WITH AN ASTERISK MAY NOT
REPORT WEATHER SUCH AS PRECIPITATION, FOG, OR THUNDER AND ARE NOT 
QUALITY CONTROLLED BY NWS.

THE REMARK "TC" DENOTES TEMPERATURE READING IN DEGREES CELSIUS.

GAZ001>058-200800-
NORTH GEORGIA
  
CITY           SKY/WX    TMP DP  RH WIND       PRES   REMARKS
ATLANTA        MOCLDY    72  62  71 SW5       30.02S                  
ATHENS         FAIR      68  63  84 S5        30.02R                  
CHAMBLEE       MOCLDY    66  62  87 CALM      30.02S                  
PEACHTREE CITY FAIR      65  63  93 CALM      30.02S                  
ROME           MOCLDY    69  64  84 CALM      30.00R                  
WEST ATLANTA   FAIR      66  63  90 CALM      30.01S                  
GAINESVILLE    FAIR      69  62  78 CALM      30.04F                  

  
CITY           SKY/WX    TMP DP  RH WIND       PRES   REMARKS
DALTON*        MOCLDY    68  63  83 CALM      30.02S                  
LAWRENCEVILLE* FAIR      64  63  96 CALM      30.02S                  
MARIETTA       FAIR      70  62  75 W3        30.01F                  
KENNESAW*      MOCLDY    71  63  75 CALM      30.03S                  
CANTON*        CLOUDY    64  63  94 CALM      30.04S                  
BLAIRSVILLE*   CLOUDY    59  58  96 CALM      30.07S                  
$$

GAZ059>098-102>109-200800-
CENTRAL GEORGIA
  
CITY           SKY/WX    TMP DP  RH WIND       PRES   REMARKS
AUGUSTA-BUSH   FAIR      72  70  93 S5        30.03S                  
AUGUSTA-DANIEL FAIR      73  68  84 S7        30.04S                  
COLUMBUS       FAIR      73  65  75 CALM      30.01S                  
MACON          FAIR      70  63  78 SE6       30.00F                  
ROBINS AFB     CLEAR     68  64  88 SE5       30.00F                  

  
CITY           SKY/WX    TMP DP  RH WIND       PRES   REMARKS
LAGRANGE*      MOCLDY    67  67  98 CALM      30.03R                  
SYLVANIA*      FAIR      71  70  96 CALM      30.05S FOG              
MILLEDGEVILLE* FAIR      70  66  88 CALM      30.01F                  
$$

GAZ099>101-110>166-200800-
SOUTH GEORGIA
  
CITY           SKY/WX    TMP DP  RH WIND       PRES   REMARKS
SAVANNAH       FAIR      74  71  91 S5        30.04S                  
VALDOSTA       FAIR      66  64  93 CALM      30.03S                  
ALMA           FAIR      68  65  90 CALM      30.03S FOG              
ST SIMONS      MOCLDY    78  71  79 S9        30.03S                  
FT STEWART     FAIR      70  69  97 CALM      30.02S                  
HUNTER AFB     FAIR      75  70  86 S3        30.02S                  
MOODY AFB      FAIR      67  65  93 CALM      30.02F                  
BRUNSWICK      FAIR      75  71  88 S6        30.03S                  

  
CITY           SKY/WX    TMP DP  RH WIND       PRES   REMARKS
BAINBRIDGE*      N/A     72  63  73 MISG      30.01F                  
MOULTRIE*      FAIR      70  63  78 CALM      30.03S                  
VIDALIA*       FAIR      72  66  83 CALM      30.05R                  
WAYCROSS*      FAIR      72  67  84 S6        30.04                   
DOUGLAS*       FAIR      70  67  92 CALM      30.05S                  
$$